Wind_Speed
1 0 1 2 4 3 2 2 3 4 5 5 6 6 7 7 6 6 6 6 6 6 6 5 4 3 3 2 2 2 2 2 3 3 3 3 3 3 3 3 3 3 3 2 2 2 3 4 4
2 1 0 1 3 0 2 2 2 3 4 5 6 6 6 7 7 6 7 7 6 6 6 5 4 3 2 1 1 1 1 2 2 3 3 3 3 2 2 3 3 3 2 2 2 3 3 4 4
3 2 1 0 1 1 2 2 2 3 4 5 6 6 7 7 7 6 6 7 7 6 6 5 4 3 2 1 1 1 1 1 2 2 2 2 2 2 1 2 2 2 2 2 3 3 3 4 4
4 3 2 2 3 3 2 2 3 4 4 5 5 6 6 7 7 6 6 6 6 6 5 5 4 3 2 1 1 1 1 1 1 1 2 1 1 1 1 1 1 2 2 2 3 3 3 3 3
4 4 3 4 5 4 3 3 3 4 4 5 5 5 6 6 6 6 6 6 6 6 5 4 3 2 2 1 1 1 1 1 1 1 2 2 1 1 1 1 1 1 2 2 3 3 3 3 3
5 4 5 6 6 6 5 4 4 4 4 4 4 5 5 6 6 6 5 5 6 5 4 3 3 2 2 1 1 1 0 1 1 1 2 2 2 2 2 1 1 1 2 3 3 3 3 3 3
6 6 7 7 7 7 6 5 4 4 4 4 4 4 5 5 6 6 6 6 5 5 4 3 3 1 1 1 0 0 0 0 0 1 1 1 1 2 2 2 2 1 2 3 3 3 3 2 3
8 7 7 8 8 8 7 6 5 5 4 4 4 4 4 5 5 6 6 6 6 4 3 3 3 2 1 1 1 1 1 1 1 1 2 2 2 2 2 2 2 2 2 2 2 2 3 3 3
9 9 9 10 10 9 8 7 6 6 5 4 4 4 5 5 6 6 6 6 5 4 4 3 2 2 1 1 1 1 1 2 2 2 2 3 3 3 3 3 3 2 2 2 3 3 3 3 4
10 10 12 12 11 10 9 8 7 6 5 5 5 5 5 6 6 6 7 6 5 5 4 3 3 2 2 1 1 1 1 1 2 3 3 3 3 3 3 3 3 4 3 3 4 4 4 4 4
12 12 13 12 11 10 10 9 8 7 6 6 5 5 5 6 6 6 7 6 5 4 4 4 3 2 2 2 2 2 2 2 2 3 3 3 3 3 3 3 4 5 5 5 5 6 6 6 6
13 13 13 12 12 11 10 9 9 8 8 7 6 6 6 7 7 7 7 6 5 4 4 4 3 3 2 2 2 2 3 3 3 3 3 4 3 3 3 4 5 5 6 6 7 7 7 7 7
14 13 14 13 12 12 11 10 10 10 8 7 7 6 6 7 7 7 6 6 5 5 4 4 4 3 3 3 3 3 4 4 3 4 4 4 4 4 4 5 5 5 5 6 7 7 7 7 8
14 15 15 15 14 14 13 12 12 12 11 10 9 8 8 8 8 8 7 7 6 6 5 5 4 4 4 4 4 5 5 5 5 5 5 5 4 4 5 5 5 5 5 6 6 7 7 7 8
15 16 16 17 16 15 14 13 13 13 13 12 11 10 10 9 9 9 8 7 7 7 6 6 5 5 5 5 5 6 6 6 7 7 7 7 7 6 6 6 6 6 6 6 6 6 7 8 9
16 16 16 18 17 16 15 14 15 14 14 14 13 12 12 11 10 9 9 8 8 8 7 7 7 7 6 5 5 6 7 7 8 9 9 9 9 8 8 7 7 7 7 6 7 7 7 9 9
17 16 16 18 18 17 17 17 16 15 16 15 14 13 13 12 11 10 10 9 10 9 8 8 8 7 7 7 8 6 6 7 8 9 10 10 10 9 9 8 8 8 8 7 8 8 8 9 9
18 17 18 19 19 18 18 18 17 16 16 16 14 14 13 13 12 12 11 11 11 11 10 9 9 8 8 8 8 8 7 7 8 9 9 10 10 10 10 9 9 9 9 10 9 9 9 9 9
20 20 19 20 21 20 19 19 19 18 17 16 15 15 14 14 13 13 12 13 12 12 11 10 10 10 10 9 9 8 8 8 9 10 10 10 10 11 9 9 10 10 10 10 10 10 11 10 10
21 21 21 21 22 21 20 20 19 18 17 17 17 16 15 15 15 14 13 14 13 13 13 12 12 11 11 11 10 10 9 10 10 10 11 10 11 10 10 10 11 11 11 11 11 11 11 11 12
22 21 21 22 21 21 20 20 20 18 18 18 18 17 17 16 16 15 15 15 15 13 13 13 13 12 12 12 11 11 11 11 11 12 12 11 11 11 11 11 11 11 11 11 12 12 12 13 13
23 22 21 21 20 21 21 19 20 18 18 18 18 19 18 17 17 16 15 15 15 14 14 13 13 13 13 13 12 12 12 12 12 12 12 11 12 12 12 12 12 12 12 12 12 13 13 13 13
23 22 22 21 21 21 21 20 19 19 18 19 19 19 20 19 19 18 17 17 17 16 16 15 15 14 14 14 14 13 13 12 12 12 12 12 11 12 13 13 13 13 13 13 13 14 14 15 15
23 23 23 22 22 23 22 22 20 19 18 19 20 20 21 20 20 20 20 19 19 18 17 17 16 16 16 15 15 14 13 13 13 12 13 13 13 13 14 14 14 15 14 14 14 15 15 16 16
24 23 22 22 23 23 23 23 21 20 19 19 20 20 20 21 21 21 21 21 20 19 18 18 18 17 17 16 16 15 15 14 14 13 14 14 14 14 15 16 16 16 16 15 16 16 16 17 18
24 23 22 22 22 21 24 23 22 20 19 19 20 21 21 21 21 21 21 21 21 20 19 19 19 19 18 17 17 16 16 15 15 15 15 16 16 16 16 17 17 17 17 17 17 17 17 17 17
24 24 23 22 21 20 23 24 22 20 20 20 21 21 21 21 21 22 22 22 22 21 21 20 20 20 19 19 18 17 17 17 16 16 16 16 17 17 17 18 18 18 18 18 18 18 18 18 18
24 24 24 23 23 23 23 24 24 21 20 20 21 22 23 22 22 21 22 22 22 22 22 22 21 22 22 21 20 19 18 18 17 18 18 18 19 19 19 19 19 20 20 20 20 20 20 19 19
24 25 25 25 25 23 22 23 24 22 21 21 22 23 23 23 23 22 21 22 22 22 22 22 23 23 23 22 21 20 19 19 19 20 20 20 21 21 21 21 21 21 21 21 21 21 21 20 20
25 25 26 26 26 26 23 23 24 23 21 22 23 23 23 23 23 23 23 23 23 23 23 23 23 24 23 23 22 21 21 21 21 21 21 21 22 22 22 22 22 22 22 22 22 22 22 21 22
Wind_Direction
169 142 74 60 54 47 30 28 29 31 35 34 33 33 28 27 28 29 26 27 25 18 14 12 9 5 5 18 37 75 95 101 103 109 102 96 100 101 101 114 121 128 130 129 128 143 161 165 163
209 224 291 39 71 36 333 350 7 17 27 25 22 24 23 23 25 28 24 25 24 19 13 4 358 357 358 11 36 76 110 107 106 108 107 99 91 91 98 116 117 124 133 132 134 151 173 172 168
220 232 254 0 188 225 301 340 353 9 10 11 11 12 13 16 18 18 18 19 19 14 8 3 358 351 358 32 37 65 113 116 108 112 116 106 87 76 92 126 126 142 148 158 163 166 180 191 185
224 231 246 244 253 271 299 335 333 350 1 1 2 6 7 10 7 7 9 9 8 6 2 358 358 346 354 52 61 58 86 112 127 142 149 141 111 99 131 135 126 168 186 181 182 183 179 187 184
226 228 241 250 256 272 293 309 328 342 348 355 359 0 1 1 359 359 1 2 359 360 1 356 352 350 360 25 57 68 92 104 137 166 173 175 160 147 159 174 160 180 201 197 190 200 197 188 173
226 226 226 239 256 269 281 295 311 330 331 339 347 352 355 358 359 353 355 353 353 355 359 359 343 333 352 354 358 8 85 112 145 191 187 189 182 172 185 199 216 222 214 201 203 202 198 196 189
224 218 226 240 253 266 275 288 295 310 318 333 336 339 348 360 1 355 349 348 350 354 354 350 346 328 302 300 276 303 93 66 186 228 207 211 217 200 210 219 226 241 227 210 205 210 216 218 213
230 231 241 247 252 259 269 276 287 293 301 310 318 325 336 353 356 354 348 345 346 350 352 344 342 338 314 269 241 234 217 197 204 221 217 229 216 208 211 218 228 233 215 224 226 233 231 226 233
235 232 242 248 248 254 262 269 281 287 290 292 304 314 326 341 348 351 346 345 344 343 339 336 335 331 309 272 255 253 220 201 210 220 220 219 209 211 223 234 237 244 249 231 241 246 245 241 241
235 234 240 244 247 250 253 264 274 280 287 290 295 304 315 332 339 348 350 343 342 341 338 330 332 323 306 289 278 269 230 225 232 245 247 245 242 245 238 240 247 256 259 252 251 256 259 257 253
240 238 242 243 246 249 253 259 264 273 281 286 293 296 309 320 326 334 342 340 333 330 335 329 323 313 299 295 278 272 272 264 254 253 250 261 260 255 252 253 257 260 256 256 255 255 260 262 260
243 244 246 246 247 251 254 258 262 266 272 276 278 285 302 311 313 324 328 327 318 312 316 317 312 305 285 277 275 274 269 266 259 255 259 264 270 264 256 261 270 268 258 257 258 257 257 257 258
243 246 246 248 250 252 256 256 258 261 268 268 273 278 288 297 302 312 321 322 312 306 308 308 302 290 279 278 273 267 263 261 259 266 267 270 273 272 268 271 273 275 260 256 256 258 264 259 254
241 245 247 251 253 252 254 256 257 260 263 263 268 270 272 288 296 299 305 311 311 301 296 293 289 282 279 281 277 263 261 253 253 256 260 268 274 275 272 278 278 272 266 265 263 265 267 262 260
243 245 249 253 255 254 253 253 255 260 262 262 264 267 266 274 284 289 294 299 302 300 289 281 281 281 282 286 284 275 262 252 256 259 256 263 265 271 273 276 277 271 268 268 266 274 271 265 263
244 246 249 254 256 255 253 252 254 258 260 260 260 264 268 270 275 280 284 289 292 297 294 286 285 280 281 298 299 284 266 261 259 258 260 265 261 267 275 274 271 271 268 265 266 273 276 271 267
243 245 247 253 255 255 254 252 252 255 257 258 259 263 267 269 270 274 276 278 283 290 293 291 284 289 289 296 301 289 271 269 265 260 260 264 262 265 272 270 268 268 266 265 265 273 278 276 270
244 245 248 253 256 257 257 256 254 254 254 257 260 262 265 266 266 270 273 277 279 282 283 284 281 283 289 294 295 289 284 280 274 266 268 262 258 261 267 267 265 268 268 269 269 271 270 270 267
241 243 246 252 256 257 258 258 255 255 255 258 260 262 262 262 266 266 270 276 278 279 280 279 280 283 283 288 291 291 292 290 290 281 272 267 261 259 260 264 266 269 269 272 273 274 268 263 262
241 244 247 251 255 257 259 260 260 259 256 258 259 260 261 262 264 269 269 271 275 275 276 277 274 276 281 284 285 285 287 289 291 287 273 266 263 260 263 266 267 267 269 271 272 273 270 265 263
243 244 248 253 257 260 262 261 260 258 257 256 257 256 257 259 262 266 266 267 269 271 274 273 268 271 274 279 282 283 286 286 286 280 271 267 265 264 262 265 264 265 269 270 270 272 270 267 264
242 244 248 254 256 260 259 258 258 258 257 256 255 255 255 257 259 262 264 264 264 266 267 268 269 270 272 276 279 284 286 286 284 282 271 266 268 270 267 267 266 265 267 268 271 271 272 268 265
242 245 249 253 257 259 259 257 258 259 257 256 256 255 255 255 257 260 262 261 261 263 265 266 269 269 272 276 280 283 283 285 282 281 273 269 271 273 272 271 270 269 267 268 272 272 271 268 266
244 245 249 253 256 259 258 259 260 261 260 256 256 255 255 254 254 258 261 260 259 262 265 266 267 269 272 274 275 278 280 281 279 278 274 270 270 271 272 273 272 270 269 270 271 272 269 268 268
242 244 249 252 254 259 259 259 261 262 261 258 256 256 254 254 254 257 260 260 260 262 264 263 265 269 270 273 274 274 278 277 275 275 273 270 269 269 271 270 272 271 270 271 272 270 268 267 267
243 244 246 250 254 257 261 260 262 262 261 259 257 256 255 255 255 256 258 259 260 262 263 262 263 266 268 270 274 275 275 273 272 272 272 271 271 270 272 270 270 270 269 268 271 270 268 268 269
243 243 244 250 252 255 260 263 261 261 262 260 258 257 256 256 257 255 255 256 258 260 261 262 262 265 266 268 272 274 271 271 271 271 272 272 273 273 274 273 272 273 271 269 268 269 268 268 269
242 244 245 247 252 256 260 263 265 263 262 261 259 257 257 257 257 257 255 255 256 259 260 262 264 265 265 268 270 271 270 270 272 272 273 275 275 274 273 274 273 273 270 267 267 268 270 271 269
243 244 244 247 250 256 262 264 265 265 264 262 260 258 257 256 257 258 256 256 257 259 261 263 264 264 265 268 269 270 271 271 273 273 273 275 275 275 277 276 275 274 272 270 270 270 270 271 270
246 246 246 248 252 255 259 265 266 265 265 263 261 260 258 257 256 256 256 257 258 259 260 262 264 263 264 267 269 271 272 271 271 273 274 275 275 275 276 277 276 275 272 271 271 270 271 272 271
Height
5905 5905 5906 5907 5908 5910 5908 5907 5906 5905 5904 5903 5902 5901 5900 5899 5899 5899 5896 5893 5892 5891 5889 5889 5888 5887 5887 5886 5886 5885 5885 5884 5884 5884 5883 5883 5882 5882 5882 5882 5882 5882 5882 5882 5882 5882 5882 5882 5883
5905 5905 5906 5907 5910 5910 5908 5907 5906 5905 5904 5903 5902 5900 5899 5898 5897 5896 5894 5893 5892 5890 5889 5889 5888 5887 5886 5886 5886 5885 5885 5884 5884 5884 5883 5883 5883 5882 5882 5882 5882 5882 5882 5882 5882 5882 5882 5882 5883
5904 5905 5907 5908 5909 5909 5907 5906 5905 5904 5903 5902 5901 5900 5899 5898 5896 5895 5894 5893 5891 5890 5889 5888 5887 5887 5886 5886 5885 5885 5884 5884 5884 5884 5883 5883 5882 5882 5882 5882 5881 5881 5881 5882 5882 5882 5882 5882 5883
5904 5905 5907 5908 5908 5907 5906 5906 5905 5904 5903 5902 5901 5900 5898 5897 5896 5895 5893 5892 5891 5890 5889 5888 5887 5887 5886 5885 5885 5884 5884 5884 5884 5883 5883 5883 5882 5882 5882 5881 5881 5881 5881 5882 5881 5882 5882 5882 5883
5903 5905 5907 5907 5906 5906 5905 5905 5904 5903 5902 5901 5901 5899 5898 5896 5895 5894 5893 5891 5890 5889 5888 5887 5887 5887 5886 5885 5885 5884 5884 5883 5883 5883 5883 5883 5882 5882 5881 5881 5881 5881 5881 5881 5881 5881 5882 5882 5882
5903 5904 5907 5907 5906 5905 5904 5904 5903 5903 5902 5901 5900 5899 5897 5896 5894 5893 5892 5891 5890 5889 5888 5887 5886 5886 5885 5885 5884 5884 5883 5883 5883 5883 5882 5882 5882 5881 5881 5881 5881 5881 5881 5881 5881 5881 5881 5881 5882
5902 5904 5905 5905 5904 5904 5903 5903 5902 5902 5901 5900 5899 5898 5897 5895 5894 5893 5892 5890 5889 5888 5887 5886 5886 5885 5885 5884 5884 5883 5883 5883 5882 5882 5882 5882 5881 5881 5881 5881 5881 5880 5880 5880 5881 5881 5881 5881 5881
5900 5902 5902 5903 5903 5903 5902 5902 5901 5901 5900 5899 5898 5897 5896 5895 5894 5892 5891 5890 5888 5887 5886 5886 5885 5884 5884 5883 5883 5882 5882 5882 5882 5881 5881 5881 5881 5880 5881 5881 5881 5880 5880 5880 5880 5880 5880 5880 5881
5898 5901 5901 5901 5901 5901 5900 5900 5900 5899 5899 5898 5897 5896 5895 5894 5893 5892 5890 5889 5888 5887 5886 5885 5884 5884 5883 5883 5882 5882 5881 5881 5881 5880 5880 5880 5880 5880 5880 5880 5880 5880 5879 5879 5880 5880 5880 5880 5880
5896 5898 5899 5898 5898 5898 5898 5898 5899 5898 5898 5897 5896 5895 5894 5893 5892 5891 5890 5888 5887 5886 5885 5884 5883 5883 5882 5882 5882 5881 5881 5880 5880 5880 5880 5880 5880 5880 5880 5880 5880 5879 5879 5879 5879 5879 5879 5879 5879
5893 5895 5895 5895 5895 5896 5896 5896 5897 5897 5897 5896 5895 5894 5893 5892 5891 5890 5889 5887 5886 5885 5884 5883 5883 5882 5882 5882 5881 5881 5881 5880 5880 5879 5879 5879 5879 5879 5879 5879 5879 5878 5878 5878 5878 5878 5878 5878 5878
5891 5891 5891 5892 5893 5893 5894 5894 5894 5895 5895 5894 5894 5893 5892 5891 5890 5889 5888 5887 5885 5884 5883 5882 5882 5882 5881 5881 5880 5880 5880 5880 5879 5879 5878 5878 5878 5878 5878 5878 5878 5877 5877 5877 5877 5877 5876 5877 5877
5887 5888 5888 5889 5890 5891 5891 5891 5892 5892 5892 5892 5892 5891 5891 5890 5889 5888 5887 5886 5884 5883 5882 5882 5881 5881 5880 5880 5879 5879 5879 5879 5878 5878 5878 5878 5877 5877 5877 5877 5877 5876 5876 5876 5876 5875 5874 5875 5875
5885 5885 5886 5886 5887 5888 5889 5889 5889 5889 5890 5890 5890 5889 5889 5889 5888 5887 5886 5885 5884 5883 5882 5881 5880 5880 5879 5879 5878 5878 5877 5877 5877 5877 5877 5877 5876 5876 5876 5876 5875 5875 5875 5874 5874 5874 5874 5874 5874
5881 5883 5883 5884 5884 5885 5886 5887 5887 5887 5887 5887 5887 5887 5887 5887 5886 5886 5885 5884 5883 5882 5880 5879 5879 5878 5878 5877 5877 5876 5875 5875 5875 5875 5875 5875 5875 5875 5875 5874 5874 5873 5873 5873 5872 5872 5872 5872 5872
5878 5880 5881 5881 5881 5882 5884 5885 5884 5884 5884 5884 5885 5885 5885 5884 5884 5884 5883 5882 5881 5880 5879 5878 5877 5876 5876 5876 5875 5874 5874 5873 5873 5873 5873 5873 5873 5873 5873 5872 5872 5872 5872 5871 5871 5871 5870 5870 5870
5875 5877 5878 5877 5877 5878 5880 5880 5880 5880 5881 5881 5882 5882 5882 5882 5882 5881 5881 5880 5879 5879 5878 5877 5876 5875 5874 5874 5873 5872 5872 5872 5871 5871 5871 5871 5871 5870 5870 5870 5870 5870 5870 5870 5870 5869 5868 5868 5868
5872 5873 5874 5874 5874 5875 5875 5876 5877 5877 5877 5878 5878 5879 5879 5879 5879 5878 5878 5878 5877 5876 5876 5875 5874 5873 5872 5872 5871 5870 5870 5870 5869 5869 5868 5868 5868 5868 5868 5867 5867 5868 5868 5867 5867 5867 5866 5866 5866
5867 5868 5869 5870 5869 5870 5871 5872 5872 5873 5873 5874 5875 5875 5876 5876 5875 5875 5875 5875 5874 5874 5873 5872 5872 5871 5870 5869 5869 5869 5868 5868 5867 5866 5866 5866 5865 5865 5865 5865 5865 5865 5865 5865 5864 5864 5863 5863 5863
5861 5863 5864 5865 5865 5866 5866 5867 5868 5868 5869 5870 5871 5872 5872 5872 5872 5872 5872 5872 5872 5871 5871 5870 5869 5869 5868 5867 5867 5866 5866 5865 5865 5864 5863 5863 5862 5862 5862 5862 5862 5862 5862 5862 5861 5861 5861 5860 5860
5856 5859 5860 5860 5860 5861 5862 5863 5864 5864 5865 5866 5867 5867 5868 5868 5869 5869 5869 5869 5868 5868 5868 5867 5866 5866 5865 5865 5864 5864 5863 5862 5861 5861 5860 5860 5859 5859 5859 5859 5859 5859 5859 5858 5858 5858 5858 5858 5857
5851 5853 5855 5855 5856 5857 5858 5859 5860 5860 5861 5861 5862 5863 5864 5864 5865 5865 5865 5865 5865 5865 5864 5864 5863 5863 5862 5862 5861 5861 5860 5859 5858 5857 5857 5856 5856 5856 5856 5856 5856 5855 5855 5855 5855 5854 5854 5854 5854
5846 5848 5850 5850 5851 5852 5852 5854 5856 5855 5856 5857 5858 5858 5859 5859 5860 5860 5861 5861 5861 5861 5861 5860 5860 5859 5859 5859 5858 5857 5856 5856 5855 5854 5854 5853 5853 5853 5853 5852 5852 5852 5852 5851 5851 5851 5851 5851 5851
5840 5843 5844 5845 5847 5847 5848 5849 5851 5851 5851 5852 5852 5853 5854 5854 5855 5856 5856 5856 5856 5857 5856 5856 5856 5856 5855 5855 5854 5854 5853 5852 5852 5851 5851 5850 5850 5850 5849 5849 5848 5848 5848 5848 5848 5847 5847 5847 5847
5835 5838 5840 5841 5842 5843 5843 5844 5846 5845 5846 5846 5847 5847 5848 5849 5850 5851 5851 5852 5852 5852 5852 5852 5852 5852 5851 5851 5850 5850 5849 5849 5848 5848 5847 5847 5847 5846 5845 5845 5845 5844 5844 5844 5843 5843 5843 5843 5843
5830 5833 5836 5838 5839 5840 5837 5838 5840 5840 5840 5840 5841 5841 5842 5843 5844 5845 5846 5846 5847 5847 5847 5847 5847 5847 5847 5846 5846 5845 5845 5845 5844 5844 5843 5843 5843 5842 5841 5841 5840 5840 5839 5839 5839 5839 5839 5839 5839
5824 5826 5830 5831 5832 5834 5833 5832 5833 5834 5834 5835 5835 5836 5836 5837 5838 5839 5840 5840 5841 5842 5842 5842 5842 5842 5842 5842 5841 5841 5841 5840 5840 5840 5839 5839 5839 5838 5837 5836 5836 5835 5835 5835 5834 5834 5834 5834 5834
5819 5821 5823 5824 5826 5827 5828 5827 5828 5828 5829 5829 5829 5829 5830 5831 5832 5833 5834 5834 5835 5836 5836 5836 5836 5836 5836 5836 5835 5836 5835 5835 5835 5835 5835 5834 5834 5833 5832 5831 5831 5831 5830 5830 5830 5829 5829 5829 5828
5812 5814 5816 5818 5820 5821 5823 5825 5821 5822 5823 5823 5823 5823 5824 5825 5826 5827 5828 5828 5829 5830 5830 5830 5830 5830 5830 5830 5830 5830 5830 5830 5830 5830 5829 5829 5828 5828 5827 5826 5826 5826 5825 5825 5825 5824 5824 5823 5823
5806 5808 5810 5812 5813 5814 5816 5820 5815 5816 5816 5816 5817 5817 5817 5818 5819 5820 5821 5822 5823 5823 5824 5824 5824 5824 5824 5825 5825 5824 5824 5825 5824 5824 5824 5823 5823 5822 5822 5821 5820 5820 5819 5819 5819 5819 5818 5818 5817